Probability
1 1 0 0 0 0 0 0 0 0 0 0 0 0 0 0 0 0 0 0 0 0 0 0 1 2 2 1 2 2 3 3 2 1 0 0 0 0 0 0 0 0 0
1 0 0 0 0 0 0 0 0 0 0 0 0 0 0 0 0 0 0 0 0 0 0 0 1 1 1 0 1 1 2 2 1 0 0 0 0 0 1 1 0 0 0
0 0 0 0 0 0 0 0 0 0 0 0 0 0 0 0 0 0 0 0 0 0 0 0 0 0 0 0 0 0 1 1 0 0 0 0 0 0 1 1 0 0 0
1 0 0 1 1 1 1 2 1 1 0 1 1 0 0 0 0 0 0 0 0 0 0 0 0 0 0 0 0 0 0 0 0 0 0 0 0 0 1 1 0 0 0
2 2 2 4 3 3 4 3 2 1 1 1 2 1 0 0 0 0 0 0 0 1 1 1 0 0 0 0 1 1 1 0 0 0 0 0 0 0 0 0 0 0 0
4 4 5 6 6 6 7 6 3 1 1 1 2 1 0 0 0 0 0 0 1 2 2 2 1 1 1 1 1 2 2 1 1 1 0 0 0 0 0 0 0 0 0
5 5 5 5 7 9 10 8 5 3 2 2 2 2 1 2 1 1 1 1 1 2 3 3 3 2 2 2 1 2 2 2 2 2 1 0 0 0 0 0 0 0 0
4 4 4 5 7 10 11 10 8 6 4 4 4 4 4 5 4 4 4 3 2 3 3 3 3 3 3 3 2 2 2 2 2 2 2 1 0 0 0 0 0 0 0
4 4 4 5 7 10 12 12 11 8 6 5 5 5 6 6 6 6 6 4 2 2 3 3 3 3 3 3 3 2 2 1 1 1 1 1 1 1 1 1 0 0 0
6 6 7 7 8 10 11 12 11 8 6 4 4 4 6 6 6 7 6 4 2 1 1 3 3 4 3 3 3 2 1 1 0 0 0 1 1 2 2 2 1 1 1
7 8 9 9 9 9 8 9 10 8 5 4 3 4 6 7 7 7 6 4 2 1 1 2 3 4 4 4 4 3 2 2 1 1 1 1 2 3 3 3 3 2 2
8 9 10 9 9 7 6 8 11 10 7 5 4 5 6 8 9 9 7 5 5 4 3 2 2 3 4 4 4 4 3 3 3 2 2 1 2 3 3 3 3 3 3
6 7 8 8 7 6 5 7 10 11 9 7 5 6 8 9 10 10 9 9 9 10 8 5 2 2 3 3 3 3 3 3 3 4 3 2 2 3 3 3 4 4 5
3 4 6 7 6 6 6 7 7 8 8 7 6 7 9 9 10 11 11 12 13 14 12 8 4 4 4 4 4 4 4 3 4 5 4 2 2 3 3 3 5 6 7
3 3 5 6 6 7 8 7 7 7 7 8 8 8 8 10 11 11 12 13 14 14 13 10 7 6 7 6 6 6 5 4 5 5 4 3 3 3 3 4 5 6 7
5 4 5 6 8 9 10 10 9 8 9 9 8 7 7 9 10 11 12 13 13 13 12 10 8 7 6 5 5 6 5 4 4 4 4 3 3 3 3 3 4 4 5
4 5 7 8 9 11 11 11 10 9 10 9 8 7 8 9 10 11 12 12 12 12 10 9 7 6 5 4 3 4 5 5 4 3 3 3 3 3 3 3 3 3 4
3 6 9 10 10 10 11 11 11 10 10 9 8 8 9 12 12 12 12 12 12 11 10 9 7 6 4 3 2 1 2 4 4 3 3 4 4 3 3 3 3 3 3
4 6 8 10 9 9 10 10 11 11 11 11 11 11 12 14 15 14 12 11 11 11 10 9 7 5 3 2 1 0 0 2 3 4 4 4 4 3 3 3 3 3 3
7 8 9 9 9 9 9 10 11 12 13 14 15 15 15 16 16 14 12 11 10 10 10 9 6 4 2 1 0 0 0 1 3 5 5 4 3 1 1 2 3 3 3
10 10 10 9 9 9 9 10 9 10 11 13 14 15 15 16 15 14 12 10 10 10 10 9 7 5 4 2 1 0 0 2 4 5 5 4 1 0 0 1 2 3 3
11 11 10 8 8 8 9 8 7 7 7 8 10 11 12 14 14 13 11 10 10 10 11 11 10 8 6 4 2 0 0 1 3 5 4 3 1 0 0 0 1 2 3
10 9 8 6 5 5 6 6 6 5 4 4 5 6 8 11 12 12 11 11 11 12 11 11 11 9 7 6 4 2 1 1 2 2 2 1 0 0 0 0 0 1 2
8 7 5 4 3 3 3 3 3 3 1 1 1 2 4 6 9 11 12 12 12 12 12 11 10 9 7 5 4 4 2 1 0 0 0 0 0 0 0 0 0 1 2
6 4 3 2 1 1 1 1 1 1 0 0 1 1 1 2 6 9 10 11 11 11 10 9 8 7 6 3 2 3 2 1 0 0 0 0 0 0 0 0 1 2 3
4 4 3 1 0 0 0 0 0 0 0 0 1 1 1 1 4 7 8 8 8 7 7 6 6 5 4 2 1 1 1 0 0 0 0 0 0 0 0 0 1 2 3
Wind_Speed
6 5 6 6 6 5 4 4 4 4 3 2 2 1 1 0 0 0 1 1 1 2 2 1 1 1 1 1 1 1 2 2 1 2 2 2 2 2 1 1 1 0 0
6 6 6 6 7 7 6 5 5 5 4 3 2 2 2 1 1 0 0 0 1 2 2 2 1 1 1 1 1 1 1 1 1 2 1 2 2 2 2 1 1 1 1
9 8 8 7 7 7 7 7 6 5 5 4 3 2 2 1 1 1 0 0 1 1 1 2 2 1 2 1 1 1 2 1 1 1 2 2 1 1 2 2 1 1 0
8 8 8 8 8 8 7 6 6 6 5 5 4 4 3 2 2 1 0 0 0 1 1 2 2 2 1 1 1 1 1 2 1 0 0 1 2 1 1 2 2 1 0
8 9 9 9 8 7 6 6 6 5 5 5 5 5 3 2 1 1 1 0 0 0 1 1 2 2 1 1 1 1 1 1 2 1 1 1 1 1 1 1 2 2 1
8 8 7 7 6 6 6 6 6 5 5 5 5 5 5 4 3 1 1 0 0 0 0 1 1 1 1 2 2 2 2 1 1 1 1 2 1 2 2 2 2 2 2
7 7 7 7 7 7 7 7 7 6 5 5 5 6 6 5 5 4 2 1 1 1 1 1 1 1 2 2 1 1 1 2 2 2 2 2 2 2 2 2 1 1 2
6 6 7 8 8 8 7 7 7 6 6 6 5 5 5 4 3 4 3 3 2 2 2 2 2 2 2 2 2 1 2 1 2 2 2 2 2 2 2 2 2 1 1
6 6 6 6 6 6 7 7 7 6 6 6 5 4 4 4 4 3 3 2 2 2 2 2 2 2 2 2 2 1 2 1 2 2 2 2 2 2 2 2 3 3 2
4 4 4 5 5 5 5 5 6 6 5 5 5 5 4 4 4 3 3 2 2 2 2 2 2 2 2 2 2 2 2 2 2 1 1 1 1 1 2 2 2 2 2
4 4 4 3 4 4 4 5 5 4 4 5 4 4 4 4 3 3 3 3 3 3 3 3 3 3 3 3 3 3 2 3 2 2 2 2 2 2 2 2 2 2 2
4 4 4 4 4 4 4 4 4 5 5 4 4 4 3 3 3 3 3 3 3 3 3 3 2 3 3 3 3 3 2 3 3 3 2 3 2 2 2 2 2 2 2
4 4 4 4 4 3 3 3 4 4 4 4 4 4 3 3 4 4 3 3 3 3 3 2 2 2 2 2 3 3 3 3 4 4 4 4 3 3 2 2 2 2 2
4 4 3 3 3 3 3 3 3 3 4 4 4 4 4 4 4 3 3 3 3 3 3 2 2 3 2 2 2 2 3 3 3 3 3 3 4 4 3 3 3 2 2
3 4 4 3 3 2 2 3 3 3 4 4 4 4 4 3 3 3 3 3 3 3 2 2 2 2 2 2 2 2 2 2 2 2 3 3 4 4 3 3 2 2 2
5 4 4 4 4 4 3 3 3 3 3 4 4 3 3 2 3 3 3 3 3 2 2 2 3 3 3 3 3 3 2 2 3 3 3 3 3 3 4 4 3 4 3
5 6 6 6 5 5 4 4 4 3 3 3 2 2 3 3 3 3 2 3 3 3 2 3 3 3 4 4 3 3 3 3 3 3 3 3 2 2 2 2 2 3 4
4 4 4 4 4 3 3 3 3 3 3 3 2 2 3 3 2 2 3 3 2 2 3 3 3 3 4 3 3 3 2 3 3 3 3 3 3 2 2 2 2 2 3
4 3 4 4 4 3 3 3 3 3 3 3 3 2 3 3 2 3 3 2 2 2 2 2 2 2 3 3 3 2 2 2 3 3 3 3 3 3 3 2 2 3 3
2 2 2 2 3 2 3 4 3 2 2 3 3 2 2 3 3 4 3 2 2 2 2 2 2 3 3 3 3 2 2 2 2 2 2 4 4 3 3 3 3 4 4
2 3 3 3 3 4 4 4 3 3 4 2 1 1 2 3 3 2 2 1 2 1 1 2 2 3 3 3 4 3 2 3 2 2 2 2 4 4 3 3 4 5 4
3 4 3 2 2 4 5 4 4 4 2 1 1 1 2 2 2 1 1 2 2 2 2 2 3 2 3 3 4 5 5 4 3 3 3 3 4 4 4 4 4 4 3
3 3 3 3 2 3 5 5 5 3 3 2 2 2 2 1 1 2 2 2 2 2 2 2 3 3 2 3 4 5 5 5 3 3 4 4 4 4 4 4 4 3 2
2 2 3 3 3 3 4 4 3 3 3 3 3 2 2 2 1 2 2 2 3 3 3 3 4 3 3 3 3 2 3 4 3 2 2 3 3 3 3 3 2 2 3
2 3 4 4 4 3 3 3 3 3 3 3 2 2 3 3 2 2 2 3 4 4 5 4 4 4 5 5 5 3 3 3 3 2 1 1 1 1 2 2 2 2 2
2 3 3 4 4 3 3 3 3 4 4 3 3 2 2 2 2 2 2 3 4 5 6 6 6 5 6 6 6 6 5 4 4 2 2 3 3 3 3 3 2 2 3
Wind_Direction
197 183 181 176 168 169 165 167 167 169 154 136 138 136 156 186 40 204 192 167 157 149 142 129 111 102 105 95 73 81 71 49 57 66 31 14 27 37 22 54 59 31 351
188 188 186 179 180 181 177 174 179 176 171 164 154 144 139 148 158 303 89 155 164 164 161 151 148 136 119 85 66 87 89 61 64 97 81 14 358 9 22 27 51 8 12
197 193 190 189 185 186 186 188 186 180 173 158 125 101 81 60 56 38 7 318 151 149 151 157 153 150 142 152 175 139 140 141 70 88 129 137 231 328 350 8 24 28 49
199 194 189 191 192 193 188 184 179 179 174 160 151 148 155 170 202 194 197 22 119 161 164 154 153 154 153 167 203 161 158 151 156 124 82 134 154 158 323 338 356 2 358
195 193 192 193 193 186 181 176 172 177 173 167 169 161 163 175 158 118 90 54 16 42 145 152 150 158 172 189 186 154 149 154 160 168 155 114 80 131 168 280 320 340 319
193 193 190 186 185 177 174 170 171 183 180 173 174 171 171 166 153 160 169 231 337 9 65 150 158 169 184 203 203 187 171 170 160 171 164 162 163 182 171 215 272 292 295
186 185 182 180 183 181 179 175 175 185 182 176 181 183 182 174 180 187 191 190 208 237 242 201 188 195 211 214 201 187 189 184 181 204 210 204 206 180 169 176 222 271 300
182 186 186 186 188 186 182 180 180 185 180 179 188 190 183 184 196 194 186 192 208 226 230 210 208 213 209 217 202 196 211 190 206 222 212 212 220 195 187 179 174 241 289
184 185 181 183 185 186 185 181 179 183 181 182 181 186 187 190 195 193 189 196 213 226 223 223 222 221 211 210 191 205 218 194 209 224 224 226 230 205 202 194 188 188 242
175 171 169 175 172 178 176 166 172 180 181 180 185 190 196 198 193 180 192 205 225 239 224 236 236 233 226 217 202 215 218 205 227 223 213 233 238 220 203 201 202 201 206
173 168 161 162 155 153 160 166 174 177 180 183 184 187 190 188 183 190 204 210 218 219 219 230 236 242 237 226 211 222 218 217 233 235 216 238 240 231 219 201 200 207 202
164 164 150 142 144 159 169 172 177 182 191 189 187 195 195 182 186 199 207 207 217 221 221 226 231 245 246 230 217 225 221 214 227 234 229 240 236 235 229 206 212 216 214
143 140 135 147 152 160 163 170 185 190 184 175 184 193 200 198 200 205 209 208 215 221 218 214 229 246 248 232 221 215 213 214 221 222 225 235 226 241 237 221 219 221 227
146 140 148 157 159 164 163 159 178 181 172 167 178 196 206 206 207 207 209 213 212 215 223 224 239 245 244 235 225 218 219 225 234 233 232 234 225 229 231 230 224 216 222
152 160 166 171 163 155 160 163 168 167 168 166 180 206 212 204 199 203 212 213 209 217 218 225 248 255 245 238 226 218 223 226 246 252 246 243 233 228 226 233 218 204 210
178 174 170 167 172 175 173 167 171 179 164 172 193 202 193 196 206 206 207 209 214 219 211 229 242 254 260 258 234 211 223 226 236 249 255 251 245 243 242 247 236 209 203
186 180 182 184 185 186 180 178 181 174 165 175 190 192 191 200 215 211 201 211 217 218 226 233 232 248 256 256 245 219 211 229 235 236 241 249 252 247 236 249 253 242 230
187 186 184 184 184 178 171 171 162 162 171 178 185 193 196 208 212 207 219 224 218 218 222 225 231 246 264 267 249 232 218 236 246 241 226 229 251 242 220 223 246 259 253
192 185 185 183 172 166 161 145 153 162 173 192 201 208 202 203 202 213 227 223 213 223 218 219 223 238 269 278 260 221 216 238 254 252 233 221 228 229 214 219 248 269 275
160 154 145 142 148 157 143 135 145 156 204 219 218 214 201 203 212 219 219 211 204 218 219 233 233 237 257 270 259 218 209 239 257 260 245 226 225 225 215 215 223 246 263
135 137 138 156 174 161 149 154 167 204 226 229 221 224 219 213 213 212 206 208 208 214 228 245 258 254 260 265 249 225 208 223 243 256 260 253 238 236 237 226 225 238 250
153 153 153 172 177 163 160 173 206 220 210 184 207 234 232 230 213 199 216 208 198 210 233 248 277 275 266 257 247 232 225 218 222 243 251 256 253 247 249 243 238 233 231
173 167 161 165 181 176 170 187 218 209 172 160 198 233 230 217 195 198 212 214 208 218 237 237 255 271 271 262 252 241 237 232 230 245 250 260 263 260 252 242 236 214 207
182 172 165 175 201 205 199 204 205 188 175 184 201 205 203 218 214 214 215 208 214 223 233 238 247 257 260 257 250 244 239 238 242 255 270 275 265 252 251 251 239 221 213
192 184 190 199 212 214 219 219 197 179 188 199 204 206 207 208 212 223 229 230 232 220 222 234 235 238 252 248 234 229 237 235 234 233 266 280 281 263 252 249 248 230 209
201 203 205 209 217 209 215 217 200 185 186 200 209 215 213 214 210 220 264 258 241 245 240 235 232 240 242 253 243 236 234 227 204 194 233 247 249 248 249 246 249 246 232